$Date,$Time,DM0201B,DM0203B,DM0205B,DM0207B,DM0209B
10/11/98,00:00:01,0,0,0,0,0
10/11/98,00:05:01,775,164,-19,127,936
10/11/98,00:10:01,794,164,-19,133,936
10/11/98,00:15:01,741,164,-19,135,936
10/11/98,00:20:01,802,164,-19,133,936
10/11/98,00:25:01,667,166,-19,129,936
10/11/98,00:30:01,736,166,-19,139,936
10/11/98,00:35:01,688,164,-19,129,936
10/11/98,00:40:01,675,164,-19,123,936
10/11/98,00:45:01,679,174,-19,136,936
10/11/98,00:50:01,551,160,-19,119,936
10/11/98,00:55:01,793,164,-19,177,936
10/11/98,01:00:01,873,176,-19,167,936
10/11/98,01:05:01,707,166,-19,159,936
10/11/98,01:10:01,764,166,-19,153,936
10/11/98,01:15:01,811,168,-18,166,936
10/11/98,01:20:01,739,168,-18,153,936
10/11/98,01:25:01,742,168,-18,171,936
10/11/98,01:30:01,856,168,-18,177,936
10/11/98,01:35:01,752,168,-18,165,936
10/11/98,01:40:01,617,169,-18,131,936
10/11/98,01:45:01,686,168,-18,124,936
10/11/98,01:50:01,766,166,-18,120,936
10/11/98,01:55:01,732,172,-19,127,936
10/11/98,02:00:01,666,173,-19,125,936
10/11/98,02:05:01,728,161,-19,131,936
10/11/98,02:10:01,823,160,-19,128,936
10/11/98,02:15:01,788,160,-19,122,936
10/11/98,02:20:01,793,158,-19,119,936
10/11/98,02:25:01,751,158,-19,123,936
10/11/98,02:30:01,737,160,-19,107,936
10/11/98,02:35:01,732,165,-19,105,936
10/11/98,02:40:01,763,163,-19,85,936
10/11/98,02:45:01,810,162,-19,84,936
10/11/98,02:50:01,813,162,-19,90,936
10/11/98,02:55:01,806,172,-19,87,936
10/11/98,03:00:01,719,159,-19,75,936
10/11/98,03:05:01,732,169,-19,81,936
10/11/98,03:10:01,728,163,-19,74,936
10/11/98,03:15:01,757,169,-19,82,938
10/11/98,03:20:01,685,169,-19,84,936
10/11/98,03:25:01,697,160,-19,87,938
10/11/98,03:30:01,692,166,-19,89,938
10/11/98,03:35:01,703,165,-19,81,938
10/11/98,03:40:01,672,169,-19,82,938
10/11/98,03:45:01,687,169,-19,82,936
10/11/98,03:50:01,627,169,-19,78,938
10/11/98,03:55:01,796,168,-19,90,938
10/11/98,04:00:01,692,168,-19,77,936
10/11/98,04:05:01,834,169,-19,87,938
10/11/98,04:10:01,803,167,-19,79,938
10/11/98,04:15:01,687,167,-19,66,938
10/11/98,04:20:01,715,167,-19,74,938
10/11/98,04:25:01,747,167,-19,71,938
10/11/98,04:30:01,702,168,-19,79,938
10/11/98,04:35:01,639,168,-19,78,938
10/11/98,04:40:01,654,168,-19,83,938
10/11/98,04:45:01,858,169,-19,80,938
10/11/98,04:50:01,724,171,-19,66,938
10/11/98,04:55:01,731,157,-19,66,938
10/11/98,05:00:01,725,157,-19,57,938
10/11/98,05:05:01,612,157,-19,52,938
10/11/98,05:10:01,712,156,-19,47,936
10/11/98,05:15:01,664,158,-19,51,936
10/11/98,05:20:01,698,158,-19,48,938
10/11/98,05:25:01,713,164,-19,46,938
10/11/98,05:30:01,596,165,-19,42,938
10/11/98,05:35:01,709,165,-19,46,938
10/11/98,05:40:01,826,164,-19,45,936
10/11/98,05:45:01,704,154,-19,36,938
10/11/98,05:50:01,743,166,-19,35,938
10/11/98,05:55:01,719,166,-20,32,938
10/11/98,06:00:01,744,166,-20,30,938
10/11/98,06:05:01,745,166,-20,30,938
10/11/98,06:10:01,733,166,-20,25,938
10/11/98,06:15:01,618,166,-20,23,938
10/11/98,06:20:01,605,166,-19,24,938
10/11/98,06:25:01,805,166,-19,26,936
10/11/98,06:30:01,698,166,-19,24,938
10/11/98,06:35:01,677,166,-19,22,938
10/11/98,06:40:01,867,166,-19,25,938
10/11/98,06:45:01,649,166,-19,19,938
10/11/98,06:50:01,749,165,-19,20,938
10/11/98,06:55:01,738,165,-19,18,938
10/11/98,07:00:01,803,165,-19,16,938
10/11/98,07:05:01,723,170,-20,16,938
10/11/98,07:10:01,724,169,-20,16,938
10/11/98,07:15:01,727,169,-19,14,938
10/11/98,07:20:01,756,169,-19,14,938
10/11/98,07:25:01,711,169,-19,14,938
10/11/98,07:30:01,705,169,-19,12,938
10/11/98,07:35:01,724,169,-19,12,938
10/11/98,07:40:01,737,169,-19,12,938
10/11/98,07:45:01,697,169,-19,12,938
10/11/98,07:50:01,736,169,-19,12,938
10/11/98,07:55:01,710,169,-19,10,938
10/11/98,08:00:01,752,169,-19,8,938
10/11/98,08:05:01,715,169,-19,8,938
10/11/98,08:10:01,745,169,-19,8,938
10/11/98,08:15:01,781,169,-19,6,938
10/11/98,08:20:01,764,169,-19,6,938
10/11/98,08:25:01,698,169,-19,4,938
10/11/98,08:30:01,752,169,-19,4,938
10/11/98,08:35:01,697,159,-19,4,938
10/11/98,08:40:01,795,169,-19,4,938
10/11/98,08:45:01,788,169,-19,4,938
10/11/98,08:50:01,685,169,-19,4,938
10/11/98,08:55:01,736,169,-19,2,938
10/11/98,09:00:01,711,169,-19,2,938
10/11/98,09:05:01,743,172,-19,2,938
10/11/98,09:10:01,665,167,-19,2,938
10/11/98,09:15:01,746,167,-19,0,938
10/11/98,09:20:01,583,167,-19,0,938
10/11/98,09:25:01,645,167,-19,0,938
10/11/98,09:30:01,740,167,-19,0,938
10/11/98,09:35:01,659,167,-19,0,938
10/11/98,09:40:01,693,155,-19,0,938
10/11/98,09:45:01,738,167,-19,0,938
10/11/98,09:50:01,732,167,-19,0,940
10/11/98,09:55:01,645,167,-19,0,938
10/11/98,10:00:01,690,167,-19,0,940
10/11/98,10:05:01,674,167,-19,0,940
10/11/98,10:10:01,596,167,-19,0,940
10/11/98,10:15:01,591,167,-19,0,938
10/11/98,10:20:01,738,167,-19,0,938
10/11/98,10:25:01,709,167,-19,0,940
10/11/98,10:30:01,663,167,-19,0,940
10/11/98,10:35:01,575,160,-19,0,940
10/11/98,10:40:01,674,170,-19,0,940
10/11/98,10:45:01,817,172,-19,0,940
10/11/98,10:50:01,664,162,-19,0,940
10/11/98,10:55:01,633,154,-19,0,940
10/11/98,11:00:01,665,165,-19,0,940
10/11/98,11:05:01,605,165,-19,0,940
10/11/98,11:10:01,686,165,-19,0,940
10/11/98,11:15:01,563,162,-19,0,940
10/11/98,11:20:01,670,150,-19,0,940
10/11/98,11:25:01,610,160,-19,0,940
10/11/98,11:30:01,668,160,-19,0,940
10/11/98,11:35:01,658,163,-19,0,940
10/11/98,11:40:01,608,163,-19,0,940
10/11/98,11:45:01,622,155,-19,0,940
10/11/98,11:50:01,665,156,-19,0,940
10/11/98,11:55:01,615,158,-19,0,940
10/11/98,12:00:01,657,170,-19,0,940
10/11/98,12:05:01,663,160,-19,0,940
10/11/98,12:10:01,613,160,-19,0,940
10/11/98,12:15:01,671,160,-19,0,940
10/11/98,12:20:01,544,160,-19,0,940
10/11/98,12:25:01,608,158,-19,0,940
10/11/98,12:30:01,603,158,-19,0,940
10/11/98,12:35:01,654,158,-19,0,942
10/11/98,12:40:01,660,157,-19,0,942
10/11/98,12:45:01,539,170,-19,0,942
10/11/98,12:50:01,537,158,-19,0,942
10/11/98,12:55:01,571,168,-19,0,942
10/11/98,13:00:01,543,168,-19,0,942
10/11/98,13:05:01,540,168,-19,0,942
10/11/98,13:10:01,587,158,-19,0,942
10/11/98,13:15:01,608,156,-19,0,942
10/11/98,13:20:01,554,167,-19,0,942
10/11/98,13:25:01,597,167,-19,0,942
10/11/98,13:30:01,601,167,-19,0,942
10/11/98,13:35:01,608,167,-19,0,942
10/11/98,13:40:01,573,167,-19,0,942
10/11/98,13:45:01,592,167,-19,0,942
10/11/98,13:50:01,618,167,-19,0,942
10/11/98,13:55:01,622,167,-19,0,942
10/11/98,14:00:01,666,167,-19,0,942
10/11/98,14:05:01,625,167,-19,0,942
10/11/98,14:10:01,517,167,-19,0,942
10/11/98,14:15:01,606,167,-19,0,942
10/11/98,14:20:01,587,166,-19,0,942
10/11/98,14:25:01,593,166,-19,0,942
10/11/98,14:30:01,672,166,-19,0,942
10/11/98,14:35:01,609,163,-19,0,942
10/11/98,14:40:01,611,170,-19,0,942
10/11/98,14:45:01,594,170,-19,0,942
10/11/98,14:50:01,582,159,-19,0,942
10/11/98,14:55:01,630,170,-19,0,942
10/11/98,15:00:01,581,170,-19,0,942
10/11/98,15:05:01,560,170,-19,0,942
10/11/98,15:10:01,639,160,-19,0,942
10/11/98,15:15:01,595,160,-19,0,942
10/11/98,15:20:01,578,162,-19,2,942
10/11/98,15:25:01,566,162,-19,2,942
10/11/98,15:30:01,603,162,-19,4,942
10/11/98,15:35:01,560,162,-19,4,942
10/11/98,15:40:01,558,162,-19,4,942
10/11/98,15:45:01,590,162,-19,4,944
10/11/98,15:50:01,511,162,-19,6,944
10/11/98,15:55:01,607,162,-19,4,944
10/11/98,16:00:01,543,162,-19,4,944
10/11/98,16:05:01,523,163,-19,4,944
10/11/98,16:10:01,485,162,-19,4,944
10/11/98,16:15:01,504,152,-19,4,944
10/11/98,16:20:01,488,163,-19,6,944
10/11/98,16:25:01,455,163,-19,6,944
10/11/98,16:30:01,445,161,-19,8,944
10/11/98,16:35:01,404,161,-19,10,944
10/11/98,16:40:01,421,161,-18,12,944
10/11/98,16:45:01,376,161,-18,12,944
10/11/98,16:50:01,422,161,-18,16,944
10/11/98,16:55:01,387,161,-18,18,944
10/11/98,17:00:01,413,161,-18,20,944
10/11/98,17:05:01,396,161,-18,24,944
10/11/98,17:10:01,349,161,-18,26,944
10/11/98,17:15:01,373,151,-18,30,944
10/11/98,17:20:01,393,151,-18,36,944
10/11/98,17:25:01,435,152,-18,40,944
10/11/98,17:30:01,428,152,-18,44,944
10/11/98,17:35:01,403,152,-18,50,944
10/11/98,17:40:01,459,152,-17,54,944
10/11/98,17:45:01,435,152,-17,58,944
10/11/98,17:50:01,443,152,-17,62,944
10/11/98,17:55:01,398,152,-17,68,944
10/11/98,18:00:01,419,152,-17,74,944
10/11/98,18:05:01,405,152,-17,80,944
10/11/98,18:10:01,391,162,-17,84,944
10/11/98,18:15:01,398,162,-17,88,944
10/11/98,18:20:01,428,162,-17,92,944
10/11/98,18:25:01,360,162,-17,98,944
10/11/98,18:30:01,419,164,-17,106,944
10/11/98,18:35:01,371,164,-17,114,944
10/11/98,18:40:01,392,164,-17,120,944
10/11/98,18:45:01,416,164,-16,126,944
10/11/98,18:50:01,415,164,-16,130,944
10/11/98,18:55:01,396,164,-16,130,944
10/11/98,19:00:01,363,154,-16,134,944
10/11/98,19:05:01,362,154,-16,140,944
10/11/98,19:10:01,343,164,-16,146,944
10/11/98,19:15:01,356,164,-16,152,944
10/11/98,19:20:01,355,164,-16,154,944
10/11/98,19:25:01,363,164,-16,154,944
10/11/98,19:30:01,370,164,-16,156,944
10/11/98,19:35:01,350,162,-16,152,944
10/11/98,19:40:01,386,162,-17,146,944
10/11/98,19:45:01,401,162,-17,142,944
10/11/98,19:50:01,431,172,-17,138,944
10/11/98,19:55:01,411,172,-17,144,944
10/11/98,20:00:01,403,172,-17,148,944
10/11/98,20:05:01,449,172,-17,152,944
10/11/98,20:10:01,410,172,-17,153,944
10/11/98,20:15:01,429,172,-17,162,944
10/11/98,20:20:01,400,172,-17,162,944
10/11/98,20:25:01,331,172,-17,183,944
10/11/98,20:30:01,340,172,-17,189,944
10/11/98,20:35:01,335,172,-17,197,944
10/11/98,20:40:01,339,172,-17,197,944
10/11/98,20:45:01,346,172,-17,217,944
10/11/98,20:50:01,349,172,-17,219,944
10/11/98,20:55:01,307,172,-17,216,944
10/11/98,21:00:01,335,172,-17,214,944
10/11/98,21:05:01,386,172,-17,229,944
10/11/98,21:10:01,310,172,-17,240,944
10/11/98,21:15:01,365,172,-17,261,944
10/11/98,21:20:01,361,172,-17,281,944
10/11/98,21:25:01,382,172,-17,326,944
10/11/98,21:30:01,416,168,-17,330,944
10/11/98,21:35:01,416,168,-16,333,944
10/11/98,21:40:01,379,168,-16,335,944
10/11/98,21:45:01,383,168,-16,337,944
10/11/98,21:50:01,476,168,-16,339,944
10/11/98,21:55:01,556,168,-16,338,944
10/11/98,22:00:01,472,158,-16,354,944
10/11/98,22:05:01,564,161,-16,379,944
10/11/98,22:10:01,544,161,-17,384,944
10/11/98,22:15:01,609,161,-17,388,942
10/11/98,22:20:01,592,161,-17,391,942
10/11/98,22:25:01,656,161,-17,384,942
10/11/98,22:30:01,633,161,-18,396,942
10/11/98,22:35:01,626,171,-18,407,942
10/11/98,22:40:01,550,161,-18,419,942
10/11/98,22:45:01,585,161,-18,425,942
10/11/98,22:50:01,532,161,-17,398,942
10/11/98,22:55:01,572,173,-17,360,942
10/11/98,23:00:01,658,163,-17,398,942
10/11/98,23:05:01,566,161,-17,403,944
10/11/98,23:10:01,489,165,-17,425,944
10/11/98,23:15:01,562,154,-16,416,944
10/11/98,23:20:01,538,164,-17,327,944
10/11/98,23:25:01,545,164,-17,357,944
10/11/98,23:30:01,551,164,-17,327,944
10/11/98,23:35:01,592,164,-16,334,944
10/11/98,23:40:01,578,164,-16,331,944
10/11/98,23:45:01,512,164,-16,320,944
10/11/98,23:50:01,525,164,-16,337,944
10/11/98,23:55:01,539,164,-16,336,944
10/12/98,00:00:01,567,178,-16,365,944
